When you browse on this site, cookies collect data to enhance your experience and personalize the content and advertising you see.
Visit our Privacy Policy to learn more. By continuing to use the site, you agree to this use of cookies and data.
  • In France
  • List of Countries
  • For 7 days
  • Water Temperature
  • Satellite Maps
  • Weather Map
  • Weather Widgets
  • user-avatar
    Login

    Hourly Weather Agcabadi

    Today, 20 July, Saturday

    Time Temperature Precipitation Wind Pressure Humidity
    00:00 +29°C° 0 mm 2 mps 759 mmHg 44%
    01:00 +29°C° 0 mm 2 mps 759 mmHg 44%
    02:00 +28°C° 0 mm 2 mps 759 mmHg 45%
    03:00 +28°C° 0 mm 3 mps 758 mmHg 46%
    04:00 +28°C° 0 mm 2 mps 759 mmHg 46%
    05:00 +28°C° 0 mm 1 mps 760 mmHg 45%
    06:00 +29°C° 0 mm 1 mps 760 mmHg 45%
    07:00 +31°C° 0 mm 1 mps 760 mmHg 41%
    08:00 +33°C° 0 mm 1 mps 760 mmHg 37%
    09:00 +36°C° 0 mm 2 mps 760 mmHg 32%
    10:00 +37°C° 0 mm 2 mps 760 mmHg 29%
    11:00 +38°C° 0 mm 3 mps 760 mmHg 27%
    12:00 +41°C° 0 mm 4 mps 760 mmHg 24%
    13:00 +41°C° 0 mm 4 mps 759 mmHg 23%
    14:00 +42°C° 0 mm 4 mps 759 mmHg 22%
    15:00 +43°C° 0 mm 5 mps 758 mmHg 22%
    16:00 +41°C° 0 mm 6 mps 759 mmHg 24%
    17:00 +40°C° 0 mm 7 mps 759 mmHg 26%
    18:00 +39°C° 0 mm 8 mps 759 mmHg 28%
    19:00 +36°C° 0 mm 7 mps 760 mmHg 31%
    20:00 +35°C° 0 mm 6 mps 760 mmHg 34%
    21:00 +33°C° 0 mm 5 mps 760 mmHg 37%
    22:00 +32°C° 0 mm 4 mps 761 mmHg 36%
    23:00 +32°C° 0 mm 4 mps 761 mmHg 36%

    Tomorrow, 21 July, Sunday

    Time Temperature Precipitation Wind Pressure Humidity
    00:00 +30°C° 0 mm 3 mps 761 mmHg 35%
    01:00 +30°C° 0 mm 3 mps 761 mmHg 37%
    02:00 +29°C° 0 mm 2 mps 761 mmHg 39%
    03:00 +28°C° 0 mm 2 mps 761 mmHg 41%
    04:00 +29°C° 0 mm 2 mps 761 mmHg 41%
    05:00 +29°C° 0 mm 1 mps 761 mmHg 41%
    06:00 +30°C° 0 mm 1 mps 761 mmHg 41%
    07:00 +32°C° 0 mm 2 mps 761 mmHg 37%
    08:00 +35°C° 0 mm 3 mps 761 mmHg 32%
    09:00 +37°C° 0 mm 4 mps 760 mmHg 27%
    10:00 +38°C° 0 mm 4 mps 760 mmHg 25%
    11:00 +41°C° 0 mm 4 mps 760 mmHg 23%
    12:00 +42°C° 0 mm 4 mps 759 mmHg 22%
    13:00 +43°C° 0 mm 4 mps 758 mmHg 21%
    14:00 +43°C° 0 mm 5 mps 758 mmHg 20%
    15:00 +45°C° 0 mm 5 mps 757 mmHg 19%
    16:00 +43°C° 0 mm 5 mps 757 mmHg 20%
    17:00 +42°C° 0 mm 6 mps 757 mmHg 22%
    18:00 +41°C° 0 mm 7 mps 757 mmHg 24%
    19:00 +38°C° 0 mm 6 mps 757 mmHg 32%
    20:00 +35°C° 0 mm 5 mps 758 mmHg 40%
    21:00 +32°C° 0 mm 4 mps 758 mmHg 48%
    22:00 +30°C° 0 mm 4 mps 758 mmHg 53%
    23:00 +29°C° 0 mm 3 mps 758 mmHg 59%

    Day after tomorrow, 22 July, Monday

    Time Temperature Precipitation Wind Pressure Humidity
    00:00 +28°C° 0 mm 3 mps 758 mmHg 64%
    01:00 +28°C° 0 mm 3 mps 758 mmHg 66%
    02:00 +27°C° 0 mm 2 mps 757 mmHg 67%
    03:00 +27°C° 0 mm 2 mps 757 mmHg 69%
    04:00 +27°C° 0 mm 2 mps 757 mmHg 67%
    05:00 +28°C° 0 mm 1 mps 757 mmHg 65%
    06:00 +28°C° 0 mm 1 mps 757 mmHg 62%
    07:00 +30°C° 0 mm 1 mps 757 mmHg 55%
    08:00 +32°C° 0 mm 2 mps 756 mmHg 48%
    09:00 +35°C° 0 mm 2 mps 756 mmHg 40%
    10:00 +37°C° 0 mm 3 mps 756 mmHg 36%
    11:00 +38°C° 0 mm 3 mps 756 mmHg 32%
    12:00 +40°C° 0 mm 3 mps 755 mmHg 28%
    13:00 +42°C° 0 mm 3 mps 755 mmHg 26%
    14:00 +43°C° 0 mm 4 mps 755 mmHg 24%
    15:00 +44°C° 0 mm 4 mps 754 mmHg 22%
    16:00 +42°C° 0 mm 6 mps 754 mmHg 26%
    17:00 +40°C° 0 mm 7 mps 754 mmHg 31%
    18:00 +38°C° 0 mm 9 mps 754 mmHg 36%
    19:00 +35°C° 0 mm 7 mps 755 mmHg 41%
    20:00 +33°C° 0 mm 5 mps 755 mmHg 45%
    21:00 +30°C° 0 mm 4 mps 756 mmHg 50%
    22:00 +30°C° 0 mm 4 mps 756 mmHg 52%
    23:00 +29°C° 0 mm 4 mps 756 mmHg 53%

    23 July, Tuesday

    Time Temperature Precipitation Wind Pressure Humidity
    00:00 +29°C° 0 mm 4 mps 756 mmHg 54%
    01:00 +29°C° 0 mm 3 mps 756 mmHg 54%
    02:00 +29°C° 0 mm 2 mps 756 mmHg 54%
    03:00 +28°C° 0 mm 1 mps 756 mmHg 53%
    04:00 +29°C° 0 mm 1 mps 757 mmHg 53%
    05:00 +29°C° 0 mm 2 mps 757 mmHg 54%
    06:00 +29°C° 0 mm 2 mps 757 mmHg 54%
    07:00 +31°C° 0 mm 2 mps 757 mmHg 49%
    08:00 +32°C° 0 mm 2 mps 757 mmHg 44%
    09:00 +35°C° 0 mm 2 mps 757 mmHg 39%
    10:00 +36°C° 0 mm 2 mps 756 mmHg 36%
    11:00 +38°C° 0 mm 3 mps 756 mmHg 33%
    12:00 +40°C° 0 mm 4 mps 755 mmHg 29%
    13:00 +41°C° 0 mm 4 mps 755 mmHg 29%
    14:00 +42°C° 0 mm 5 mps 754 mmHg 28%
    15:00 +42°C° 0 mm 6 mps 754 mmHg 27%
    16:00 +41°C° 0 mm 6 mps 754 mmHg 30%
    17:00 +39°C° 0 mm 6 mps 754 mmHg 32%
    18:00 +38°C° 0 mm 7 mps 754 mmHg 35%
    19:00 +35°C° 0 mm 6 mps 754 mmHg 39%
    20:00 +33°C° 0 mm 5 mps 755 mmHg 44%
    21:00 +30°C° 0 mm 4 mps 755 mmHg 48%
    22:00 +29°C° 0 mm 3 mps 755 mmHg 49%
    23:00 +29°C° 0 mm 2 mps 755 mmHg 50%

    24 July, Wednesday

    Time Temperature Precipitation Wind Pressure Humidity
    00:00 +28°C° 0 mm 1 mps 755 mmHg 52%
    01:00 +28°C° 0 mm 1 mps 755 mmHg 54%
    02:00 +27°C° 0 mm 1 mps 755 mmHg 56%
    03:00 +27°C° 0 mm 1 mps 755 mmHg 58%
    04:00 +27°C° 0 mm 1 mps 755 mmHg 57%
    05:00 +27°C° 0 mm 1 mps 756 mmHg 56%
    06:00 +28°C° 0 mm 1 mps 756 mmHg 55%
    07:00 +30°C° 0 mm 2 mps 756 mmHg 48%
    08:00 +32°C° 0 mm 2 mps 756 mmHg 41%
    09:00 +35°C° 0 mm 2 mps 756 mmHg 34%
    10:00 +36°C° 0 mm 2 mps 755 mmHg 31%
    11:00 +38°C° 0 mm 3 mps 755 mmHg 28%
    12:00 +39°C° 0 mm 3 mps 754 mmHg 25%
    13:00 +40°C° 0 mm 3 mps 754 mmHg 24%
    14:00 +42°C° 0 mm 3 mps 753 mmHg 23%
    15:00 +43°C° 0 mm 3 mps 753 mmHg 22%
    16:00 +42°C° 0 mm 3 mps 753 mmHg 23%
    17:00 +42°C° 0 mm 4 mps 753 mmHg 24%
    18:00 +41°C° 0 mm 4 mps 753 mmHg 25%
    19:00 +38°C° 0 mm 4 mps 753 mmHg 30%
    20:00 +35°C° 0 mm 5 mps 754 mmHg 35%
    21:00 +32°C° 0 mm 5 mps 754 mmHg 40%
    22:00 +30°C° 0 mm 4 mps 754 mmHg 43%
    23:00 +29°C° 0 mm 3 mps 754 mmHg 46%

    25 July, Thursday

    Time Temperature Precipitation Wind Pressure Humidity
    00:00 +28°C° 0 mm 2 mps 755 mmHg 49%
    01:00 +28°C° 0 mm 1 mps 754 mmHg 52%
    02:00 +27°C° 0 mm 1 mps 754 mmHg 54%
    03:00 +27°C° 0 mm 1 mps 754 mmHg 57%
    04:00 +27°C° 0 mm 1 mps 754 mmHg 56%
    05:00 +28°C° 0 mm 1 mps 755 mmHg 54%
    06:00 +28°C° 0 mm 1 mps 755 mmHg 53%
    07:00 +30°C° 0 mm 1 mps 755 mmHg 47%
    08:00 +32°C° 0 mm 1 mps 755 mmHg 41%
    09:00 +34°C° 0 mm 1 mps 755 mmHg 34%
    10:00 +37°C° 0 mm 2 mps 754 mmHg 30%
    11:00 +39°C° 0 mm 2 mps 754 mmHg 27%
    12:00 +42°C° 0 mm 3 mps 753 mmHg 23%
    13:00 +43°C° 0 mm 3 mps 752 mmHg 21%
    14:00 +44°C° 0 mm 4 mps 752 mmHg 20%
    15:00 +46°C° 0 mm 5 mps 751 mmHg 18%
    16:00 +43°C° 0 mm 5 mps 751 mmHg 21%
    17:00 +42°C° 0 mm 6 mps 751 mmHg 23%
    18:00 +40°C° 0 mm 7 mps 751 mmHg 25%
    19:00 +38°C° 0 mm 6 mps 752 mmHg 28%
    20:00 +35°C° 0 mm 4 mps 752 mmHg 31%
    21:00 +33°C° 0 mm 3 mps 753 mmHg 34%
    22:00 +31°C° 0 mm 3 mps 753 mmHg 37%
    23:00 +30°C° 0 mm 2 mps 753 mmHg 40%
    Show more